Location: Mentone
(34.5413°N, 85.5351°W)
Time: 16:42:15
(UTC-05:00)

AO-Echo - Visible Passes

Search period start: 29 July 2016 00:00
Search period end: 08 August 2016 00:00
Orbit: 694 x 811 km, 98.3° (Epoch: 28 July)

Date Brightness Start Highest point End Pass type
(mag) Time Alt. Az. Time Alt. Az. Time Alt. Az.
29 Jul ? 01:37:45 10° NNE 01:39:45 22° NE 01:39:45 22° NE visible
29 Jul ? 03:17:07 10° NNW 03:19:41 19° NW 03:19:41 19° NW visible
30 Jul ? 02:35:46 10° N 02:38:40 34° NNW 02:38:40 34° NNW visible
31 Jul ? 01:55:20 10° NNE 01:57:40 27° NE 01:57:40 27° NE visible
31 Jul ? 03:36:01 10° NW 03:37:35 13° NW 03:37:35 13° NW visible
01 Aug ? 01:15:56 10° NE 01:16:39 13° NE 01:16:39 13° NE visible
01 Aug ? 02:53:54 10° N 02:56:35 27° NW 02:56:35 27° NW visible
02 Aug ? 02:13:06 10° NNE 02:15:35 31° NNE 02:15:35 31° NNE visible
03 Aug ? 01:33:09 10° NE 01:34:34 18° NE 01:34:34 18° NE visible
03 Aug ? 03:12:15 10° NNW 03:14:30 19° NW 03:14:30 19° NW visible
04 Aug ? 02:31:01 10° N 02:33:29 30° N 02:33:29 30° N visible
05 Aug ? 01:50:40 10° NNE 01:52:29 22° NE 01:52:29 22° NE visible
05 Aug ? 03:30:59 10° NNW 03:32:24 14° NW 03:32:24 14° NW visible
06 Aug ? 01:11:28 10° NE 01:11:28 10° NE 01:11:28 10° NE visible
06 Aug ? 02:49:06 10° N 02:51:24 25° NNW 02:51:24 25° NNW visible
07 Aug ? 02:08:22 10° NNE 02:10:23 25° NNE 02:10:23 25° NNE visible
